This is the latest recevied weather packets stored in our database for station/object ZL1CTS-13. If no packets are shown the sender has not sent any weather packets the latest 10 day(s).
| Time | Temp. | Humidity | Pressure | Rain* | Wind** | Luminosity | Snow |
|---|---|---|---|---|---|---|---|
| 1788213304 | 15° C | 67% | 1004.5 hPa | 0 mm | - | - | - |
| 1788213004 | 14.44° C | 70% | 1004.3 hPa | 0 mm | - | - | - |
| 1788212705 | 14.44° C | 71% | 1004.2 hPa | 0 mm | - | - | - |
| 1788212705 | 14.44° C | 71% | 1004.2 hPa | 0 mm | - | - | - |
| 1788212405 | 14.44° C | 71% | 1004.2 hPa | 0 mm | - | - | - |
| 1788212105 | 13.89° C | 72% | 1004.1 hPa | 0 mm | - | - | - |
| 1788211804 | 13.33° C | 73% | 1004.2 hPa | 0 mm | - | - | - |
| 1788211804 | 13.33° C | 73% | 1004.2 hPa | 0 mm | - | - | - |
| 1788211503 | 12.78° C | 73% | 1004.3 hPa | 0 mm | - | - | - |
| 1788211204 | 12.22° C | 72% | 1004.3 hPa | 0 mm | - | - | - |
| 1788210906 | 12.22° C | 70% | 1004.2 hPa | 0 mm | - | - | - |
| 1788210905 | 12.22° C | 70% | 1004.2 hPa | 0 mm | - | - | - |
| 1788210606 | 12.78° C | 71% | 1004 hPa | 0 mm | - | - | - |
| 1788210304 | 12.78° C | 72% | 1004 hPa | 0 mm | - | - | - |
| 1788210005 | 12.22° C | 72% | 1003.7 hPa | 0 mm | - | - | - |
| 1788210004 | 12.22° C | 72% | 1003.7 hPa | 0 mm | - | - | - |
| 1788209704 | 12.22° C | 73% | 1003.6 hPa | 0 mm | - | - | - |
| 1788209404 | 11.67° C | 75% | 1003.7 hPa | 0 mm | - | - | - |
| 1788209105 | 11.67° C | 74% | 1003.8 hPa | 0 mm | - | - | - |
| 1788209103 | 11.67° C | 74% | 1003.8 hPa | 0 mm | - | - | - |
| 1788208804 | 11.67° C | 73% | 1003.9 hPa | 0 mm | - | - | - |
| 1788208522 | 11.67° C | 73% | 1003.7 hPa | 0 mm | - | - | - |
| 1788208204 | 11.67° C | 72% | 1003.7 hPa | 0 mm | - | - | - |
| 1788208203 | 11.67° C | 72% | 1003.7 hPa | 0 mm | - | - | - |
| 1788207904 | 11.67° C | 72% | 1003.6 hPa | 0 mm | - | - | - |
* Rain latest hour (hover to see other rain measurements)
** Current wind speed in m/s (hover to see current wind gust speed)